IRNSS-1F

Last updated on Sun Apr 12 2026 00:02:54 GMT+0000 (Coordinated Universal Time)

1 41384U 16015A 26101.17266953 .00000163 00000+0 00000+0 0 9990 2 41384 5.1800 98.3346 0017631 190.4656 5.2908 1.00265616 36996
UTC large
Height (km)
Speed (km/s)
/
Latitude / Longitude
Inclination (degrees)
Orbital Period (minutes)
Azimuth
Elevation
Range (km)
Doppler Factor

Next 0 passes for location: London (51.5072 / 0.1276)

Sorry there are no passes over London.
IRNSS-1F